Location: Pisa
(43.7170°N, 10.3830°E)
Time: 23:49:55
(UTC+02:00)

ISS - Pass Details

Date: 20 May 2021
Orbit: 417 x 422 km, 51.6° (Epoch: 23 June)

Event Time Altitude Azimuth Distance (km) Brightness Sun altitude
Rises 21:17:08 0° 257° (WSW) 2,356 0.7 -6.1°
Reaches altitude 10° 21:19:19 10° 265° (W) 1,496 -0.1 -6.4°
Maximum altitude 21:22:30 40° 337° (NNW) 634 -2.2 -6.9°
Drops below altitude 10° 21:25:43 10° 49° (NE) 1,504 -1.1 -7.4°
Sets 21:27:54 0° 57° (ENE) 2,371 -0.1 -7.7°
